Content
SEND FEEDBACK

Daily
Averages
Monthly
Summary
United States of America

HERMOSA, SOUTH DAKOTA


Home > North America > United States > South Dakota
Elevation: 3300 feet     Latitude: 43 50N     Longitude: 103 11W

WEATHER
 
SELECT A DAY
Number of Records: 200,600;   Date Range: 1/1/95 - 9/22/14
 
SHARE

PRINT THIS DATA

[ ← Previous Day ]
WEATHER ALMANAC - JANUARY 11, 2013
[ Next Day → ]
[ °C ]   °F
Weather ElementAverageHighLow
Temperature16.6 °F30.2 °F (12:32 am)7 °F (11:52 pm)
Dewpoint10.9 °F28.4 °F (12:32 am)-2.2 °F (10:28 pm)
Humidity78.4 %93 % (12:32 am)62 % (10:28 pm)
Barometer29.61 in29.98 in (11:52 pm)29.41 in (6:10 am)
Wind Speed30.8 mph39.1 mph (9:42 am)
Wind Gust49.5 mph (6:10 am)
Weather ElementAverage
Visibility4.7 mi
Wind DirectionNNW (333.6 °)

Weather ElementTotal
Precipitation0.18 in
Heating Degree Days46.4 (Base 65)
Averaged from 56 records on January 11, 2013
WEATHER CONDITIONS BREAKOUT
WIND DIRECTION BREAKOUT
WEATHER BY HOUR - JANUARY 11, 2013
[ °C ]   °F
Local TimeTemperatureDewpointHumidityBarometerVisibilityWind DirectionWind SpeedGust SpeedPrecipitationEventsConditions
12:32 AM30.2 °F28.4 °F93 %29.46 in10.0 miNorth (350°)26.5 mph32.2 mphMostly Cloudy
12:52 AM30.0 °F27.0 °F88 %29.51 in10.0 miNorth (350°)25.3 mph34.5 mphMostly Cloudy
1:14 AM30.2 °F26.6 °F86 %29.46 in10.0 miNorth (350°)29.9 mph38.0 mphScattered Clouds
1:38 AM30.2 °F26.6 °F86 %29.45 in10.0 miNorth (350°)29.9 mph38.0 mphMostly Cloudy
1:52 AM28.9 °F26.1 °F89 %29.51 in10.0 miNorth (350°)32.2 mph41.4 mphOvercast
2:52 AM27.0 °F24.1 °F89 %29.47 in10.0 miNorth (350°)35.7 mph44.9 mphOvercast
3:52 AM25.0 °F21.9 °F88 %29.48 in10.0 miNorth (350°)35.7 mph43.7 mphOvercast
4:23 AM24.8 °F21.2 °F86 %29.43 in10.0 miNorth (350°)31.1 mph42.6 mphOvercast
4:52 AM24.1 °F19.9 °F84 %29.47 in10.0 miNorth (350°)33.4 mph48.3 mphOvercast
5:49 AM23.0 °F19.4 °F86 %29.42 in10.0 miNorth (350°)34.5 mph44.9 mphOvercast
5:52 AM23.0 °F19.0 °F85 %29.50 in10.0 miNorth (350°)36.8 mph46.0 mphOvercast
6:10 AM21.2 °F17.6 °F86 %29.41 in10.0 miNorth (350°)38.0 mph49.5 mphOvercast
6:26 AM21.2 °F17.6 °F86 %29.44 in10.0 miNorth (350°)32.2 mph43.7 mphOvercast
6:52 AM21.9 °F17.1 °F82 %29.55 in10.0 miNorth (10°)26.5 mph35.7 mphOvercast
7:02 AM21.2 °F17.6 °F86 %29.46 in10.0 miNorth (360°)31.1 mph38.0 mphOvercast
7:52 AM19.9 °F15.1 °F81 %29.58 in8.0 miNorth (360°)36.8 mph43.7 mph0.00 inOvercast
7:59 AM19.4 °F15.8 °F86 %29.49 in3.0 miNorth (360°)36.8 mph43.7 mph0.00 inSnowLight Snow
8:03 AM19.4 °F15.8 °F86 %29.49 in1.8 miNorth (360°)38.0 mph46.0 mph0.00 inSnowLight Snow
8:38 AM17.6 °F14.0 °F86 %29.49 in1.0 miNorth (350°)36.8 mph48.3 mph0.00 inSnowLight Snow
8:52 AM18.0 °F12.9 °F81 %29.59 in1.2 miNorth (350°)35.7 mph48.3 mph0.00 inSnowBlowing Snow
9:01 AM17.6 °F12.2 °F79 %29.51 in1.5 miNorth (350°)33.4 mph44.9 mphSnowBlowing Snow
9:11 AM15.8 °F12.2 °F86 %29.51 in1.0 miNorth (350°)32.2 mph44.9 mphSnowBlowing Snow
9:17 AM15.8 °F12.2 °F86 %29.51 in0.5 miNorth (350°)33.4 mph43.7 mphSnowBlowing Snow
9:38 AM15.8 °F10.4 °F79 %29.51 in1.0 miNNW (340°)36.8 mph44.9 mph0.01 inSnowBlowing Snow
9:42 AM15.8 °F10.4 °F79 %29.51 in0.5 miNNW (340°)39.1 mph49.5 mph0.01 inSnowBlowing Snow
9:52 AM15.1 °F10.0 °F80 %29.62 in0.5 miNNW (340°)38.0 mph49.5 mph0.01 inSnowBlowing Snow
9:55 AM15.8 °F10.4 °F79 %29.51 in1.0 miNNW (340°)34.5 mph49.5 mphSnowBlowing Snow
10:07 AM15.8 °F10.4 °F79 %29.52 in1.0 miNorth (350°)31.1 mph46.0 mph0.00 inSnowLight Snow
10:13 AM15.8 °F10.4 °F79 %29.53 in0.8 miNNW (340°)33.4 mph47.2 mphSnowLight Snow
10:32 AM15.8 °F8.6 °F73 %29.53 in1.2 miNNW (340°)31.1 mph44.9 mph0.01 inSnowLight Snow
10:52 AM15.1 °F10.0 °F80 %29.65 in1.2 miNNW (340°)28.8 mph42.6 mph0.01 inSnowLight Snow
11:20 AM15.8 °F8.6 °F73 %29.50 in0.8 miNNW (340°)28.8 mph42.6 mph0.00 inSnowLight Snow
11:52 AM15.1 °F10.0 °F80 %29.61 in1.0 miNNW (340°)35.7 mph47.2 mph0.00 inSnowLight Snow
12:52 PM15.1 °F7.0 °F70 %29.64 in0.8 miNNW (330°)34.5 mph46.0 mph0.00 inSnowLight Snow
1:52 PM14.0 °F8.1 °F77 %29.65 in0.5 miNNW (330°)32.2 mph43.7 mph0.00 inSnowSnow
2:52 PM12.9 °F9.0 °F84 %29.71 in0.5 miNW (320°)28.8 mph38.0 mph0.03 inFog-SnowSnow
2:59 PM12.2 °F8.6 °F85 %29.57 in0.2 miNW (320°)33.4 mph42.6 mph0.00 inSnowHeavy Snow
3:52 PM12.9 °F8.1 °F81 %29.75 in0.2 miNW (320°)28.8 mph41.4 mph0.04 inSnowHeavy Snow
4:39 PM12.2 °F6.8 °F79 %29.62 in0.5 miNW (320°)29.9 mph36.8 mphSnowSnow
4:49 PM12.2 °F6.8 °F79 %29.63 in1.2 miNW (320°)35.7 mph42.6 mph0.03 inSnowLight Snow
4:52 PM12.9 °F5.0 °F71 %29.77 in1.5 miNW (320°)33.4 mph42.6 mph0.03 inSnowLight Snow
5:01 PM12.2 °F3.2 °F67 %29.62 in3.0 miNW (320°)29.9 mph43.7 mph0.00 inSnowLight Snow
5:20 PM12.2 °F3.2 °F67 %29.63 in8.0 miNNW (330°)29.9 mph36.8 mph0.00 inOvercast
5:52 PM12.0 °F1.9 °F64 %29.79 in6.0 miNNW (330°)31.1 mph41.4 mph0.00 inSnowBlowing Snow
6:52 PM10.9 °F1.0 °F64 %29.83 in10.0 miNNW (330°)27.6 mph36.8 mphOvercast
7:52 PM10.0 °F1.0 °F67 %29.88 in9.0 miNNW (330°)25.3 mph33.4 mph0.00 inSnowLight Snow
8:42 PM10.4 °F1.4 °F67 %29.73 in4.0 miNNW (330°)24.2 mph31.1 mphSnowLight Snow
8:52 PM9.0 °F0.0 °F67 %29.91 in3.0 miNNW (330°)24.2 mph32.2 mph0.00 inSnowLight Snow
9:01 PM8.6 °F-0.4 °F67 %29.74 in2.5 miNNW (330°)23.0 mph0.00 inSnowLight Snow
9:22 PM8.6 °F1.4 °F73 %29.75 in3.0 miNNW (330°)23.0 mph31.1 mph0.00 inSnowLight Snow
9:52 PM9.0 °F0.0 °F67 %29.94 in3.0 miNNW (330°)24.2 mph0.00 inSnowLight Snow
9:59 PM8.6 °F1.4 °F73 %29.76 in2.5 miNNW (330°)20.7 mph0.00 inSnowLight Snow
10:17 PM8.6 °F1.4 °F73 %29.77 in4.0 miNNW (330°)18.4 mph0.00 inSnowLight Snow
10:28 PM8.6 °F-2.2 °F62 %29.77 in7.0 miNNW (330°)21.9 mphSnowLight Snow
10:52 PM8.1 °F-0.9 °F67 %29.96 in6.0 miNNW (330°)25.3 mph31.1 mph0.00 inSnowLight Snow
11:52 PM7.0 °F-2.0 °F67 %29.98 in8.0 miNNW (330°)21.9 mph0.00 inSnowLight Snow
Hourly data recorded from KRAP, located miles away from Hermosa, South Dakota







STORIES FROM OUR PARTNERS